GLO7386 SBBR-SBRP

Flight info

Callsign GLO7386
Flight time 1h 1m
Altitude 27000
Route GAXO2A GEBEP DCT SBRP
Aircraft B738/M-TU/N

Departure

Time 2026-04-26 20:55
Airport Presidente Juscelino Kubitschek International Airport (SBBR)

Arrival

Time 2026-04-26 21:57
Airport Leite Lopes Airport (SBRP)
Time Latitude Longitude Altitude Speed Heading
2026-04-26 19:52 -15.87120 -47.91769 3456 ft 0 kts 175°
2026-04-26 20:35 -15.87119 -47.91769 3456 ft 0 kts 175°
2026-04-26 20:36 -15.87117 -47.91769 3456 ft 2 kts 175°
2026-04-26 20:36 -15.87100 -47.91772 3457 ft 2 kts 154°
2026-04-26 20:37 -15.87087 -47.91782 3455 ft 2 kts 123°
2026-04-26 20:37 -15.87081 -47.91798 3456 ft 2 kts 92°
2026-04-26 20:37 -15.87081 -47.91802 3456 ft 0 kts 85°
2026-04-26 20:46 -15.87080 -47.91787 3458 ft 7 kts 85°
2026-04-26 20:46 -15.87072 -47.91726 3456 ft 8 kts 75°
2026-04-26 20:46 -15.87036 -47.91689 3457 ft 8 kts 22°
2026-04-26 20:46 -15.86984 -47.91688 3457 ft 7 kts 351°
2026-04-26 20:47 -15.86930 -47.91694 3459 ft 9 kts 356°
2026-04-26 20:47 -15.86876 -47.91698 3458 ft 14 kts 355°
2026-04-26 20:47 -15.86737 -47.91696 3456 ft 11 kts 359°
2026-04-26 20:47 -15.86678 -47.91654 3456 ft 11 kts 66°
2026-04-26 20:48 -15.86620 -47.91618 3456 ft 10 kts
2026-04-26 20:48 -15.86549 -47.91624 3461 ft 10 kts 354°
2026-04-26 20:48 -15.86485 -47.91608 3465 ft 10 kts 49°
2026-04-26 20:48 -15.86472 -47.91539 3467 ft 11 kts 85°
2026-04-26 20:49 -15.86465 -47.91429 3469 ft 19 kts 86°
2026-04-26 20:49 -15.86456 -47.91278 3471 ft 23 kts 86°
2026-04-26 20:49 -15.86445 -47.91101 3474 ft 24 kts 86°
2026-04-26 20:49 -15.86434 -47.90932 3474 ft 23 kts 87°
2026-04-26 20:50 -15.86421 -47.90771 3476 ft 22 kts 86°
2026-04-26 20:50 -15.86414 -47.90613 3479 ft 22 kts 85°
2026-04-26 20:50 -15.86405 -47.90460 3480 ft 21 kts 85°
2026-04-26 20:50 -15.86394 -47.90312 3481 ft 20 kts 83°
2026-04-26 20:51 -15.86387 -47.90187 3484 ft 16 kts 90°
2026-04-26 20:51 -15.86381 -47.90076 3485 ft 15 kts 85°
2026-04-26 20:51 -15.86374 -47.89971 3486 ft 14 kts 88°
2026-04-26 20:51 -15.86367 -47.89871 3487 ft 13 kts 86°
2026-04-26 20:52 -15.86366 -47.89839 3487 ft 0 kts 88°
2026-04-26 20:52 -15.86365 -47.89814 3485 ft 10 kts 87°
2026-04-26 20:52 -15.86317 -47.89737 3486 ft 17 kts
2026-04-26 20:53 -15.86188 -47.89768 3485 ft 20 kts 322°
2026-04-26 20:53 -15.86174 -47.89858 3486 ft 6 kts 264°
2026-04-26 20:53 -15.86175 -47.89860 3486 ft 0 kts 264°
2026-04-26 20:54 -15.86176 -47.89878 3537 ft 13 kts 264°
2026-04-26 20:54 -15.86196 -47.90187 3486 ft 76 kts 266°
2026-04-26 20:55 -15.86244 -47.90955 3476 ft 135 kts 266°
2026-04-26 20:55 -15.86303 -47.92120 3471 ft 181 kts 268°
2026-04-26 20:55 -15.86351 -47.93415 4019 ft 181 kts 270°
2026-04-26 20:55 -15.86355 -47.94826 4210 ft 207 kts 270°
2026-04-26 20:56 -15.86318 -47.96398 4308 ft 227 kts 271°
2026-04-26 20:56 -15.86394 -47.98105 4597 ft 243 kts 257°
2026-04-26 20:56 -15.87025 -47.99759 5226 ft 246 kts 238°
2026-04-26 20:56 -15.87908 -48.01311 5802 ft 261 kts 238°
2026-04-26 20:57 -15.88882 -48.02996 6235 ft 276 kts 238°
2026-04-26 20:57 -15.89882 -48.04712 6915 ft 280 kts 238°
2026-04-26 20:57 -15.90900 -48.06445 7595 ft 284 kts 238°
2026-04-26 20:57 -15.91952 -48.08218 8263 ft 289 kts 238°
2026-04-26 20:58 -15.93024 -48.10000 8940 ft 294 kts 238°
2026-04-26 20:58 -15.94125 -48.11809 9631 ft 298 kts 238°
2026-04-26 20:58 -15.95248 -48.13638 9936 ft 301 kts 238°
2026-04-26 20:58 -15.96374 -48.15463 9947 ft 299 kts 238°
2026-04-26 20:59 -15.97502 -48.17286 9968 ft 301 kts 238°
2026-04-26 20:59 -15.98617 -48.19088 10406 ft 295 kts 238°
2026-04-26 20:59 -15.99878 -48.20825 10858 ft 304 kts 225°
2026-04-26 20:59 -16.01609 -48.22029 11308 ft 305 kts 200°
2026-04-26 21:00 -16.03683 -48.22413 11859 ft 304 kts 181°
2026-04-26 21:00 -16.05808 -48.22415 12395 ft 308 kts 178°
2026-04-26 21:00 -16.07950 -48.22359 12911 ft 308 kts 178°
2026-04-26 21:00 -16.10082 -48.22295 13436 ft 309 kts 178°
2026-04-26 21:01 -16.12254 -48.22230 13950 ft 311 kts 178°
2026-04-26 21:01 -16.14438 -48.22164 14426 ft 314 kts 178°
2026-04-26 21:01 -16.16629 -48.22098 14905 ft 316 kts 178°
2026-04-26 21:01 -16.18831 -48.22032 15368 ft 322 kts 177°
2026-04-26 21:02 -16.21138 -48.21889 15476 ft 344 kts 175°
2026-04-26 21:02 -16.23607 -48.21629 15622 ft 363 kts 173°
2026-04-26 21:02 -16.26172 -48.21283 15744 ft 380 kts 172°
2026-04-26 21:02 -16.27924 -48.21032 15947 ft 386 kts 172°
2026-04-26 21:03 -16.30610 -48.20721 16425 ft 391 kts 177°
2026-04-26 21:03 -16.33340 -48.21056 16802 ft 398 kts 198°
2026-04-26 21:03 -16.35799 -48.22329 17466 ft 396 kts 214°
2026-04-26 21:03 -16.38036 -48.24010 18076 ft 397 kts 217°
2026-04-26 21:04 -16.40247 -48.25786 18199 ft 411 kts 218°
2026-04-26 21:04 -16.42541 -48.27664 18290 ft 423 kts 218°
2026-04-26 21:04 -16.44882 -48.29584 18627 ft 424 kts 218°
2026-04-26 21:04 -16.47192 -48.31472 19240 ft 420 kts 218°
2026-04-26 21:05 -16.49486 -48.33344 19797 ft 417 kts 218°
2026-04-26 21:05 -16.51763 -48.35198 20369 ft 414 kts 218°
2026-04-26 21:05 -16.54030 -48.37045 20849 ft 415 kts 218°
2026-04-26 21:05 -16.56307 -48.38866 21139 ft 421 kts 215°
2026-04-26 21:06 -16.58805 -48.40496 21492 ft 425 kts 208°
2026-04-26 21:06 -16.61513 -48.41824 21941 ft 426 kts 201°
2026-04-26 21:06 -16.64295 -48.42793 22378 ft 427 kts 194°
2026-04-26 21:06 -16.67205 -48.43431 22760 ft 429 kts 188°
2026-04-26 21:07 -16.70186 -48.43714 23126 ft 432 kts 181°
2026-04-26 21:07 -16.73202 -48.43634 23496 ft 434 kts 174°
2026-04-26 21:07 -16.76191 -48.43193 23816 ft 436 kts 168°
2026-04-26 21:07 -16.79110 -48.42404 24119 ft 438 kts 162°
2026-04-26 21:08 -16.82015 -48.41400 24448 ft 440 kts 160°
2026-04-26 21:08 -16.84904 -48.40337 24862 ft 438 kts 160°
2026-04-26 21:08 -16.87743 -48.39281 25508 ft 430 kts 160°
2026-04-26 21:08 -16.90550 -48.38238 26074 ft 426 kts 160°
2026-04-26 21:09 -16.93332 -48.37208 26680 ft 421 kts 160°
2026-04-26 21:09 -16.96107 -48.36185 26976 ft 426 kts 160°
2026-04-26 21:09 -16.98908 -48.35154 26913 ft 437 kts 160°
2026-04-26 21:09 -17.01834 -48.34077 26972 ft 443 kts 160°
2026-04-26 21:10 -17.04733 -48.33008 26961 ft 451 kts 160°
2026-04-26 21:10 -17.07719 -48.31907 26970 ft 458 kts 160°
2026-04-26 21:10 -17.10740 -48.30792 26966 ft 464 kts 160°
2026-04-26 21:10 -17.13801 -48.29661 26973 ft 469 kts 160°
2026-04-26 21:11 -17.16903 -48.28515 26959 ft 474 kts 160°
2026-04-26 21:11 -17.20033 -48.27358 26969 ft 478 kts 160°
2026-04-26 21:11 -17.23181 -48.26194 26969 ft 482 kts 160°
2026-04-26 21:11 -17.26344 -48.25024 26976 ft 485 kts 160°
2026-04-26 21:12 -17.29544 -48.23840 26962 ft 488 kts 160°
2026-04-26 21:12 -17.32742 -48.22656 26963 ft 491 kts 160°
2026-04-26 21:12 -17.35984 -48.21455 26969 ft 493 kts 160°
2026-04-26 21:12 -17.39186 -48.20269 26966 ft 495 kts 160°
2026-04-26 21:13 -17.42454 -48.19058 26962 ft 497 kts 160°
2026-04-26 21:13 -17.45716 -48.17849 26966 ft 498 kts 160°
2026-04-26 21:13 -17.48980 -48.16639 26966 ft 499 kts 160°
2026-04-26 21:13 -17.52315 -48.15403 26963 ft 501 kts 160°
2026-04-26 21:14 -17.55552 -48.14202 26959 ft 501 kts 160°
2026-04-26 21:14 -17.58853 -48.12977 26961 ft 502 kts 160°
2026-04-26 21:14 -17.62143 -48.11756 26956 ft 502 kts 160°
2026-04-26 21:14 -17.65439 -48.10533 26965 ft 502 kts 160°
2026-04-26 21:15 -17.68734 -48.09286 26960 ft 503 kts 159°
2026-04-26 21:15 -17.71977 -48.07911 26946 ft 503 kts 156°
2026-04-26 21:15 -17.75164 -48.06383 26966 ft 503 kts 154°
2026-04-26 21:15 -17.78324 -48.04806 26965 ft 503 kts 155°
2026-04-26 21:16 -17.81520 -48.03314 26963 ft 503 kts 157°
2026-04-26 21:16 -17.84746 -48.02020 26958 ft 503 kts 161°
2026-04-26 21:16 -17.88142 -48.00948 26943 ft 503 kts 167°
2026-04-26 21:16 -17.91636 -48.00673 26891 ft 503 kts 187°
2026-04-26 21:17 -17.95008 -48.01323 27011 ft 500 kts 193°
2026-04-26 21:17 -17.98445 -48.02210 26968 ft 501 kts 195°
2026-04-26 21:17 -18.01776 -48.03095 26963 ft 502 kts 194°
2026-04-26 21:17 -18.05189 -48.03851 26979 ft 502 kts 190°
2026-04-26 21:18 -18.08660 -48.04300 26947 ft 503 kts 184°
2026-04-26 21:18 -18.12162 -48.04382 26972 ft 503 kts 179°
2026-04-26 21:18 -18.15626 -48.03960 26836 ft 506 kts 160°
2026-04-26 21:18 -18.18645 -48.02105 25717 ft 512 kts 148°
2026-04-26 21:19 -18.21909 -48.00608 25600 ft 496 kts 169°
2026-04-26 21:19 -18.25117 -48.00056 27777 ft 439 kts 173°
2026-04-26 21:19 -18.28034 -47.99616 29214 ft 421 kts 172°
2026-04-26 21:19 -18.30989 -47.99208 29181 ft 432 kts 173°
2026-04-26 21:20 -18.34013 -47.98748 28923 ft 447 kts 170°
2026-04-26 21:20 -18.37101 -47.98079 28698 ft 460 kts 167°
2026-04-26 21:20 -18.40255 -47.97269 28444 ft 472 kts 166°
2026-04-26 21:20 -18.43477 -47.96422 28205 ft 483 kts 167°
2026-04-26 21:21 -18.46789 -47.95636 27916 ft 493 kts 168°
2026-04-26 21:21 -18.50194 -47.94959 27449 ft 500 kts 171°
2026-04-26 21:21 -18.53634 -47.94406 27069 ft 497 kts 173°
2026-04-26 21:21 -18.57055 -47.93963 27043 ft 495 kts 174°
2026-04-26 21:22 -18.60498 -47.93587 27006 ft 498 kts 175°
2026-04-26 21:22 -18.63954 -47.93237 26974 ft 500 kts 175°
2026-04-26 21:22 -18.67430 -47.92883 26990 ft 501 kts 175°
2026-04-26 21:23 -18.74393 -47.92125 26993 ft 503 kts 174°
2026-04-26 21:23 -18.77871 -47.91723 27006 ft 503 kts 174°
2026-04-26 21:23 -18.81342 -47.91313 27004 ft 504 kts 174°
2026-04-26 21:23 -18.84845 -47.90895 27001 ft 504 kts 174°
2026-04-26 21:24 -18.88330 -47.90478 27008 ft 504 kts 174°
2026-04-26 21:24 -18.91826 -47.90061 27004 ft 504 kts 174°
2026-04-26 21:24 -18.95310 -47.89646 26988 ft 504 kts 174°
2026-04-26 21:24 -18.98796 -47.89232 26995 ft 504 kts 174°
2026-04-26 21:25 -19.02280 -47.88818 26988 ft 504 kts 174°
2026-04-26 21:25 -19.05706 -47.88412 26987 ft 504 kts 174°
2026-04-26 21:25 -19.09218 -47.87996 26968 ft 505 kts 174°
2026-04-26 21:25 -19.12707 -47.87583 26983 ft 504 kts 174°
2026-04-26 21:26 -19.16203 -47.87168 26982 ft 505 kts 174°
2026-04-26 21:26 -19.19694 -47.86753 26971 ft 505 kts 174°
2026-04-26 21:26 -19.23192 -47.86338 26987 ft 505 kts 174°
2026-04-26 21:26 -19.26679 -47.85923 26981 ft 505 kts 175°
2026-04-26 21:27 -19.30174 -47.85507 26971 ft 505 kts 175°
2026-04-26 21:27 -19.33655 -47.85093 26976 ft 505 kts 175°
2026-04-26 21:27 -19.37156 -47.84676 26993 ft 505 kts 175°
2026-04-26 21:27 -19.40651 -47.84260 26986 ft 505 kts 175°
2026-04-26 21:28 -19.44136 -47.83845 26976 ft 505 kts 175°
2026-04-26 21:28 -19.47628 -47.83429 27000 ft 505 kts 175°
2026-04-26 21:28 -19.51129 -47.83011 27009 ft 505 kts 175°
2026-04-26 21:28 -19.54582 -47.82599 26998 ft 505 kts 175°
2026-04-26 21:29 -19.58117 -47.82177 27005 ft 505 kts 175°
2026-04-26 21:29 -19.61569 -47.81765 27029 ft 505 kts 175°
2026-04-26 21:29 -19.65064 -47.81348 27019 ft 506 kts 175°
2026-04-26 21:29 -19.68567 -47.80929 27021 ft 506 kts 175°
2026-04-26 21:30 -19.72068 -47.80511 27029 ft 506 kts 175°
2026-04-26 21:30 -19.73999 -47.80280 27035 ft 506 kts 175°
2026-04-26 21:34 -19.75239 -47.80131 27028 ft 506 kts 175°
2026-04-26 21:34 -19.78748 -47.79711 27026 ft 506 kts 175°
2026-04-26 21:34 -19.82243 -47.79293 27021 ft 506 kts 175°
2026-04-26 21:34 -19.85730 -47.78875 27031 ft 506 kts 175°
2026-04-26 21:35 -19.89235 -47.78455 27005 ft 502 kts 175°
2026-04-26 21:35 -19.92672 -47.78042 26785 ft 495 kts 175°
2026-04-26 21:35 -19.96082 -47.77633 26185 ft 489 kts 175°
2026-04-26 21:35 -19.99417 -47.77231 25717 ft 474 kts 175°
2026-04-26 21:36 -20.02670 -47.76840 25131 ft 471 kts 175°
2026-04-26 21:36 -20.04864 -47.76576 24779 ft 469 kts 175°
2026-04-26 21:36 -20.09145 -47.76063 24005 ft 466 kts 175°
2026-04-26 21:36 -20.12364 -47.75677 23463 ft 462 kts 175°
2026-04-26 21:37 -20.15550 -47.75294 22806 ft 459 kts 175°
2026-04-26 21:37 -20.18711 -47.74914 22258 ft 453 kts 175°
2026-04-26 21:37 -20.21831 -47.74539 21726 ft 448 kts 175°
2026-04-26 21:37 -20.24914 -47.74168 21189 ft 444 kts 175°
2026-04-26 21:38 -20.27979 -47.73800 20664 ft 441 kts 175°
2026-04-26 21:38 -20.30981 -47.73439 20146 ft 437 kts 175°
2026-04-26 21:38 -20.33990 -47.73076 19616 ft 435 kts 175°
2026-04-26 21:38 -20.36998 -47.72714 19068 ft 433 kts 175°
2026-04-26 21:39 -20.39981 -47.72354 18573 ft 429 kts 175°
2026-04-26 21:39 -20.42944 -47.71997 17976 ft 427 kts 174°
2026-04-26 21:39 -20.45879 -47.71642 17425 ft 422 kts 174°
2026-04-26 21:39 -20.48777 -47.71292 16928 ft 416 kts 174°
2026-04-26 21:40 -20.51631 -47.70947 16403 ft 412 kts 174°
2026-04-26 21:40 -20.54470 -47.70604 15905 ft 407 kts 174°
2026-04-26 21:40 -20.57267 -47.70265 15417 ft 404 kts 174°
2026-04-26 21:40 -20.60062 -47.69927 14923 ft 400 kts 174°
2026-04-26 21:41 -20.61892 -47.69706 14603 ft 399 kts 174°
2026-04-26 21:41 -20.64311 -47.69413 14144 ft 395 kts 174°
2026-04-26 21:41 -20.67029 -47.69084 13649 ft 389 kts 174°
2026-04-26 21:41 -20.69710 -47.68760 13143 ft 386 kts 174°
2026-04-26 21:42 -20.72368 -47.68438 12623 ft 385 kts 174°
2026-04-26 21:42 -20.75021 -47.68117 12143 ft 381 kts 174°
2026-04-26 21:42 -20.77653 -47.67798 11668 ft 379 kts 174°
2026-04-26 21:42 -20.80264 -47.67482 11191 ft 377 kts 174°
2026-04-26 21:43 -20.82859 -47.67167 10747 ft 374 kts 174°
2026-04-26 21:43 -20.85285 -47.66872 10639 ft 352 kts 174°
2026-04-26 21:43 -20.87640 -47.66586 10458 ft 332 kts 174°
2026-04-26 21:43 -20.89879 -47.66314 10304 ft 313 kts 174°
2026-04-26 21:44 -20.91987 -47.66058 10197 ft 299 kts 174°
2026-04-26 21:44 -20.94032 -47.65810 10072 ft 294 kts 174°
2026-04-26 21:44 -20.95383 -47.65646 9995 ft 296 kts 174°
2026-04-26 21:44 -20.97447 -47.65396 9724 ft 301 kts 174°
2026-04-26 21:45 -20.99404 -47.65158 9439 ft 298 kts 174°
2026-04-26 21:45 -21.01448 -47.64909 9179 ft 295 kts 174°
2026-04-26 21:45 -21.03489 -47.64660 8988 ft 291 kts 174°
2026-04-26 21:45 -21.06144 -47.64337 8992 ft 294 kts 174°
2026-04-26 21:46 -21.07516 -47.64170 8992 ft 294 kts 174°
2026-04-26 21:46 -21.09552 -47.63922 8995 ft 295 kts 174°
2026-04-26 21:46 -21.11590 -47.63674 8990 ft 294 kts 174°
2026-04-26 21:46 -21.13605 -47.63428 8995 ft 294 kts 174°
2026-04-26 21:47 -21.15637 -47.63181 8991 ft 294 kts 174°
2026-04-26 21:47 -21.17660 -47.62934 8985 ft 294 kts 174°
2026-04-26 21:47 -21.19695 -47.62686 8747 ft 298 kts 174°
2026-04-26 21:47 -21.21797 -47.62431 7832 ft 313 kts 174°
2026-04-26 21:48 -21.23986 -47.62207 7199 ft 311 kts 181°
2026-04-26 21:48 -21.26062 -47.62739 6268 ft 317 kts 211°
2026-04-26 21:48 -21.27699 -47.64260 5685 ft 309 kts 233°
2026-04-26 21:48 -21.28698 -47.66284 4897 ft 310 kts 254°
2026-04-26 21:49 -21.28991 -47.68530 4247 ft 305 kts 276°
2026-04-26 21:49 -21.28412 -47.70677 3767 ft 295 kts 298°
2026-04-26 21:49 -21.27170 -47.72367 3518 ft 279 kts 318°
2026-04-26 21:49 -21.25621 -47.73478 3410 ft 262 kts 338°
2026-04-26 21:50 -21.23946 -47.74015 3461 ft 239 kts 346°
2026-04-26 21:50 -21.22389 -47.74441 3407 ft 223 kts 344°
2026-04-26 21:50 -21.20953 -47.74912 3391 ft 208 kts 342°
2026-04-26 21:50 -21.19630 -47.75361 3408 ft 195 kts 342°
2026-04-26 21:51 -21.18372 -47.75782 3401 ft 183 kts 342°
2026-04-26 21:51 -21.17153 -47.76188 3015 ft 186 kts 342°
2026-04-26 21:51 -21.15921 -47.76590 2567 ft 183 kts 343°
2026-04-26 21:51 -21.14701 -47.76985 1929 ft 188 kts 343°
2026-04-26 21:52 -21.13521 -47.77390 1824 ft 162 kts 343°
2026-04-26 21:52 -21.12489 -47.77709 2017 ft 160 kts 349°
2026-04-26 21:52 -21.11325 -47.77406 2446 ft 199 kts 36°
2026-04-26 21:52 -21.10578 -47.76202 2780 ft 198 kts 78°
2026-04-26 21:53 -21.10844 -47.74710 2974 ft 214 kts 124°
2026-04-26 21:53 -21.12063 -47.73796 3029 ft 230 kts 162°
2026-04-26 21:53 -21.13594 -47.73394 3419 ft 218 kts 170°
2026-04-26 21:53 -21.15039 -47.73156 3562 ft 205 kts 174°
2026-04-26 21:54 -21.16422 -47.72912 3524 ft 196 kts 168°
2026-04-26 21:54 -21.17731 -47.72559 3349 ft 192 kts 169°
2026-04-26 21:54 -21.19037 -47.72536 3164 ft 184 kts 199°
2026-04-26 21:54 -21.20039 -47.73271 2985 ft 172 kts 239°
2026-04-26 21:55 -21.20294 -47.74491 2641 ft 175 kts 284°
2026-04-26 21:55 -21.19665 -47.75565 2415 ft 174 kts 328°
2026-04-26 21:55 -21.18502 -47.75866 2353 ft 170 kts 355°
2026-04-26 21:55 -21.17430 -47.76080 2382 ft 148 kts 342°
2026-04-26 21:56 -21.16442 -47.76423 2261 ft 152 kts 343°
2026-04-26 21:56 -21.15430 -47.76760 2077 ft 153 kts 343°
2026-04-26 21:56 -21.14459 -47.77070 1862 ft 139 kts 343°
2026-04-26 21:56 -21.13601 -47.77346 1802 ft 115 kts 343°
2026-04-26 21:57 -21.12996 -47.77539 1804 ft 68 kts 343°
2026-04-26 21:57 -21.12807 -47.77602 1803 ft 21 kts 342°
2026-04-26 21:57 -21.12680 -47.77641 1805 ft 19 kts 348°
2026-04-26 21:57 -21.12569 -47.77711 1802 ft 16 kts 310°
2026-04-26 21:58 -21.12559 -47.77725 1801 ft 4 kts 298°
2026-04-26 21:58 -21.12587 -47.77777 1803 ft 13 kts 222°
2026-04-26 21:58 -21.12682 -47.77814 1801 ft 15 kts 174°
2026-04-26 21:58 -21.12818 -47.77778 1802 ft 25 kts 167°
2026-04-26 21:59 -21.13012 -47.77716 1802 ft 33 kts 161°
2026-04-26 21:59 -21.13297 -47.77621 1804 ft 47 kts 163°
2026-04-26 21:59 -21.13606 -47.77525 1804 ft 44 kts 164°
2026-04-26 21:59 -21.13827 -47.77453 1803 ft 16 kts 176°
2026-04-26 22:00 -21.13860 -47.77505 1801 ft 9 kts 271°
2026-04-26 22:00 -21.13857 -47.77562 1804 ft 8 kts 253°
2026-04-26 22:00 -21.13866 -47.77597 1802 ft 0 kts 255°